{"data":{"norad_id":65230,"epoch":"2026-09-21T21:25:23.396160Z","epoch_age_seconds":41952,"freshness":"FRESH","line1":"1 65230U 25178C   26264.89263190  .00000007  00000+0 -16766-4 0  9994","line2":"2 65230  86.4993 340.7314 0001637 108.7363 251.3949 13.24412896 53117","mean_motion":13.24412896,"eccentricity":0.0001637,"inclination_deg":86.4993,"raan_deg":340.7314,"arg_perigee_deg":108.7363,"mean_anomaly_deg":251.3949,"bstar":-1.6766e-5,"rev_number":5311,"period_min":108.72742211655,"perigee_km":1166.6758972456,"apogee_km":1169.1464734214,"semimajor_km":7546.0481853335,"source":"CELESTRAK","updated_at":"2026-09-22T09:00:30.214231Z"}}